NILESAT 301

Last updated on Tue Sep 22 2026 00:03:15 GMT+0000 (Coordinated Universal Time)

1 52817U 22061A 26264.34511670 .00000000 00000+0 00000+0 0 9999 2 52817 0.0251 25.1791 0001348 144.7916 307.4615 1.00269089 15700
UTC large
Height (km)
Speed (km/s)
/
Latitude / Longitude
Inclination (degrees)
Orbital Period (minutes)
Azimuth
Elevation
Range (km)
Doppler Factor

Next 0 passes for location: London (51.5072 / 0.1276)

No passes found over London.
NILESAT 301